Time,TemperatureF,DewpointF,PressureIn,WindDirection,WindDirectionDegrees,WindSpeedMPH,WindSpeedGustMPH,Humidity,HourlyPrecipIn,Conditions,Clouds,dailyrainin,SoftwareType,DateUTC
2013-03-22 00:00:00,33.1,8.4,30.07,SW,231,0.0,0.0,35,0.00,,,0.00,meteohub,2013-03-22 04:00:00,
2013-03-22 00:03:00,32.9,8.2,30.07,SW,231,0.0,0.0,35,0.00,,,0.00,meteohub,2013-03-22 04:03:00,
2013-03-22 00:08:00,32.9,8.8,30.07,SW,231,0.0,0.0,36,0.00,,,0.00,meteohub,2013-03-22 04:08:00,
2013-03-22 00:13:00,32.7,8.8,30.07,SW,231,0.0,0.0,36,0.00,,,0.00,meteohub,2013-03-22 04:13:00,
2013-03-22 00:18:00,32.7,9.3,30.07,SW,231,0.0,0.0,37,0.00,,,0.00,meteohub,2013-03-22 04:18:00,
2013-03-22 00:23:00,32.7,9.3,30.07,SW,231,0.0,0.0,37,0.00,,,0.00,meteohub,2013-03-22 04:23:00,
2013-03-22 00:28:00,32.7,9.3,30.10,SW,231,0.0,0.0,37,0.00,,,0.00,meteohub,2013-03-22 04:28:00,
2013-03-22 00:33:00,32.5,9.7,30.10,SW,231,0.0,2.0,38,0.00,,,0.00,meteohub,2013-03-22 04:33:00,
2013-03-22 00:38:00,32.7,10.4,30.10,SW,231,0.0,2.0,39,0.00,,,0.00,meteohub,2013-03-22 04:38:00,
2013-03-22 00:43:00,32.7,10.4,30.10,SW,231,0.0,2.0,39,0.00,,,0.00,meteohub,2013-03-22 04:43:00,
2013-03-22 00:48:00,32.5,10.4,30.10,SW,231,0.0,0.0,39,0.00,,,0.00,meteohub,2013-03-22 04:48:00,
2013-03-22 00:53:00,32.4,10.2,30.10,SW,231,0.0,0.0,39,0.00,,,0.00,meteohub,2013-03-22 04:53:00,
2013-03-22 00:58:00,32.4,10.2,30.10,SW,231,0.0,0.0,39,0.00,,,0.00,meteohub,2013-03-22 04:58:00,
2013-03-22 01:03:00,32.4,10.8,30.10,SW,231,0.0,0.0,40,0.00,,,0.00,meteohub,2013-03-22 05:03:00,
2013-03-22 01:08:00,32.4,10.8,30.10,SW,231,0.0,0.0,40,0.00,,,0.00,meteohub,2013-03-22 05:08:00,
2013-03-22 01:13:00,32.2,10.6,30.10,SW,231,0.0,0.0,40,0.00,,,0.00,meteohub,2013-03-22 05:13:00,
2013-03-22 01:18:00,32.2,11.1,30.10,SW,231,0.0,0.0,41,0.00,,,0.00,meteohub,2013-03-22 05:18:00,
2013-03-22 01:23:00,31.8,10.8,30.10,SW,231,0.0,0.0,41,0.00,,,0.00,meteohub,2013-03-22 05:23:00,
2013-03-22 01:28:00,31.6,10.6,30.10,SW,231,0.0,0.0,41,0.00,,,0.00,meteohub,2013-03-22 05:28:00,
2013-03-22 01:33:00,31.6,10.6,30.10,SW,231,0.0,0.0,41,0.00,,,0.00,meteohub,2013-03-22 05:33:00,
2013-03-22 01:38:00,31.6,10.6,30.10,SW,231,0.0,0.0,41,0.00,,,0.00,meteohub,2013-03-22 05:38:00,
2013-03-22 01:43:00,31.5,10.4,30.10,SW,231,0.0,3.0,41,0.00,,,0.00,meteohub,2013-03-22 05:43:00,
2013-03-22 01:48:00,31.5,10.4,30.10,SW,231,0.0,3.0,41,0.00,,,0.00,meteohub,2013-03-22 05:48:00,
2013-03-22 01:54:00,31.3,10.2,30.10,SW,231,0.0,3.0,41,0.00,,,0.00,meteohub,2013-03-22 05:54:00,
2013-03-22 01:59:00,31.1,10.8,30.10,SW,231,0.0,0.0,42,0.00,,,0.00,meteohub,2013-03-22 05:59:00,
2013-03-22 02:04:00,31.1,10.8,30.10,SW,231,0.0,0.0,42,0.00,,,0.00,meteohub,2013-03-22 06:04:00,
2013-03-22 02:09:00,30.9,10.6,30.10,SW,231,0.0,0.0,42,0.00,,,0.00,meteohub,2013-03-22 06:09:00,
2013-03-22 02:14:00,30.7,10.4,30.10,SW,231,0.0,0.0,42,0.00,,,0.00,meteohub,2013-03-22 06:14:00,
2013-03-22 02:19:00,30.9,11.1,30.10,SW,231,0.0,0.0,43,0.00,,,0.00,meteohub,2013-03-22 06:19:00,
2013-03-22 02:24:00,30.9,11.1,30.10,SW,231,0.0,0.0,43,0.00,,,0.00,meteohub,2013-03-22 06:24:00,
2013-03-22 02:29:00,30.7,10.9,30.10,SW,231,0.0,0.0,43,0.00,,,0.00,meteohub,2013-03-22 06:29:00,
2013-03-22 02:34:00,30.7,10.9,30.10,SW,231,0.0,0.0,43,0.00,,,0.00,meteohub,2013-03-22 06:34:00,
2013-03-22 02:39:00,30.7,11.5,30.10,SW,231,0.0,0.0,44,0.00,,,0.00,meteohub,2013-03-22 06:39:00,
2013-03-22 02:44:00,30.6,11.3,30.10,SW,231,0.0,0.0,44,0.00,,,0.00,meteohub,2013-03-22 06:44:00,
2013-03-22 02:49:00,30.4,11.1,30.10,SW,231,0.0,0.0,44,0.00,,,0.00,meteohub,2013-03-22 06:49:00,
2013-03-22 02:54:00,30.2,11.5,30.10,SW,231,0.0,0.0,45,0.00,,,0.00,meteohub,2013-03-22 06:54:00,
2013-03-22 02:59:00,30.4,11.7,30.10,SW,231,0.0,0.0,45,0.00,,,0.00,meteohub,2013-03-22 06:59:00,
2013-03-22 03:04:00,30.4,11.7,30.10,SW,231,0.0,0.0,45,0.00,,,0.00,meteohub,2013-03-22 07:04:00,
2013-03-22 03:09:00,30.4,11.7,30.10,SW,231,0.0,0.0,45,0.00,,,0.00,meteohub,2013-03-22 07:09:00,
2013-03-22 03:14:00,30.4,11.7,30.10,SW,231,0.0,0.0,45,0.00,,,0.00,meteohub,2013-03-22 07:14:00,
2013-03-22 03:19:00,30.4,11.7,30.10,SW,231,0.0,0.0,45,0.00,,,0.00,meteohub,2013-03-22 07:19:00,
2013-03-22 03:24:00,30.4,11.7,30.10,SW,231,0.0,0.0,45,0.00,,,0.00,meteohub,2013-03-22 07:24:00,
2013-03-22 03:29:00,30.2,11.5,30.13,SW,231,0.0,0.0,45,0.00,,,0.00,meteohub,2013-03-22 07:29:00,
2013-03-22 03:34:00,30.2,11.5,30.13,SW,231,0.0,0.0,45,0.00,,,0.00,meteohub,2013-03-22 07:34:00,
2013-03-22 03:39:00,30.2,11.5,30.14,SW,231,0.0,0.0,45,0.00,,,0.00,meteohub,2013-03-22 07:39:00,
2013-03-22 03:44:00,30.2,11.5,30.14,SW,231,0.0,0.0,45,0.00,,,0.00,meteohub,2013-03-22 07:44:00,
2013-03-22 03:49:00,30.0,11.3,30.14,SW,231,0.0,0.0,45,0.00,,,0.00,meteohub,2013-03-22 07:49:00,
2013-03-22 03:54:00,30.2,11.5,30.14,SW,231,0.0,0.0,45,0.00,,,0.00,meteohub,2013-03-22 07:54:00,
2013-03-22 03:59:00,30.0,11.3,30.14,SW,231,0.0,0.0,45,0.00,,,0.00,meteohub,2013-03-22 07:59:00,
2013-03-22 04:04:00,29.8,11.1,30.14,SW,231,0.0,0.0,45,0.00,,,0.00,meteohub,2013-03-22 08:04:00,
2013-03-22 04:09:00,29.7,11.5,30.14,SW,231,0.0,0.0,46,0.00,,,0.00,meteohub,2013-03-22 08:09:00,
2013-03-22 04:14:00,29.7,11.5,30.14,SW,231,0.0,0.0,46,0.00,,,0.00,meteohub,2013-03-22 08:14:00,
2013-03-22 04:19:00,29.5,11.3,30.14,SW,231,0.0,0.0,46,0.00,,,0.00,meteohub,2013-03-22 08:19:00,
2013-03-22 04:24:00,29.5,11.3,30.14,SW,231,0.0,0.0,46,0.00,,,0.00,meteohub,2013-03-22 08:24:00,
2013-03-22 04:29:00,29.5,11.3,30.14,SW,231,0.0,0.0,46,0.00,,,0.00,meteohub,2013-03-22 08:29:00,
2013-03-22 04:34:00,29.5,11.3,30.14,SW,231,0.0,0.0,46,0.00,,,0.00,meteohub,2013-03-22 08:34:00,
2013-03-22 04:39:00,29.3,11.5,30.14,SW,231,0.0,0.0,47,0.00,,,0.00,meteohub,2013-03-22 08:39:00,
2013-03-22 04:44:00,29.1,11.5,30.14,SW,231,0.0,0.0,47,0.00,,,0.00,meteohub,2013-03-22 08:44:00,
2013-03-22 04:49:00,29.1,11.5,30.14,SW,231,0.0,0.0,47,0.00,,,0.00,meteohub,2013-03-22 08:49:00,
2013-03-22 04:54:00,29.1,11.5,30.14,SW,231,0.0,0.0,47,0.00,,,0.00,meteohub,2013-03-22 08:54:00,
2013-03-22 04:59:00,29.1,11.8,30.11,SW,231,0.0,0.0,48,0.00,,,0.00,meteohub,2013-03-22 08:59:00,
2013-03-22 05:04:00,28.9,11.7,30.11,SW,231,0.0,0.0,48,0.00,,,0.00,meteohub,2013-03-22 09:04:00,
2013-03-22 05:09:00,28.9,11.7,30.11,SW,231,0.0,0.0,48,0.00,,,0.00,meteohub,2013-03-22 09:09:00,
2013-03-22 05:14:00,28.8,11.5,30.14,SW,231,0.0,0.0,48,0.00,,,0.00,meteohub,2013-03-22 09:14:00,
2013-03-22 05:19:00,28.8,11.5,30.14,SW,231,0.0,0.0,48,0.00,,,0.00,meteohub,2013-03-22 09:19:00,
2013-03-22 05:24:00,28.8,12.0,30.14,SW,231,0.0,0.0,49,0.00,,,0.00,meteohub,2013-03-22 09:24:00,
2013-03-22 05:29:00,28.8,12.0,30.14,SW,231,0.0,0.0,49,0.00,,,0.00,meteohub,2013-03-22 09:29:00,
2013-03-22 05:34:00,28.8,12.0,30.14,SW,231,0.0,0.0,49,0.00,,,0.00,meteohub,2013-03-22 09:34:00,
2013-03-22 05:39:00,28.6,11.8,30.14,SW,231,0.0,0.0,49,0.00,,,0.00,meteohub,2013-03-22 09:39:00,
2013-03-22 05:44:00,28.6,11.8,30.14,SW,231,0.0,0.0,49,0.00,,,0.00,meteohub,2013-03-22 09:44:00,
2013-03-22 05:49:00,28.6,12.4,30.14,SW,231,0.0,0.0,50,0.00,,,0.00,meteohub,2013-03-22 09:49:00,
2013-03-22 05:54:00,28.6,12.4,30.14,SW,231,0.0,0.0,50,0.00,,,0.00,meteohub,2013-03-22 09:54:00,
2013-03-22 05:59:00,28.6,12.4,30.14,SW,231,0.0,0.0,50,0.00,,,0.00,meteohub,2013-03-22 09:59:00,
2013-03-22 06:04:00,28.6,12.4,30.14,SW,231,0.0,0.0,50,0.00,,,0.00,meteohub,2013-03-22 10:04:00,
2013-03-22 06:09:00,28.4,12.6,30.14,SW,231,0.0,0.0,51,0.00,,,0.00,meteohub,2013-03-22 10:09:00,
2013-03-22 06:14:00,28.4,12.2,30.17,SW,231,0.0,0.0,50,0.00,,,0.00,meteohub,2013-03-22 10:14:00,
2013-03-22 06:19:00,28.2,11.5,30.17,SW,231,0.0,0.0,49,0.00,,,0.00,meteohub,2013-03-22 10:19:00,
2013-03-22 06:24:00,28.0,11.3,30.17,SW,231,0.0,0.0,49,0.00,,,0.00,meteohub,2013-03-22 10:24:00,
2013-03-22 06:29:00,28.0,11.8,30.17,SW,231,0.0,0.0,50,0.00,,,0.00,meteohub,2013-03-22 10:29:00,
2013-03-22 06:34:00,28.0,11.8,30.17,SW,231,0.0,0.0,50,0.00,,,0.00,meteohub,2013-03-22 10:34:00,
2013-03-22 06:40:00,28.0,12.2,30.17,SW,231,0.0,0.0,51,0.00,,,0.00,meteohub,2013-03-22 10:40:00,
2013-03-22 06:45:00,27.9,12.0,30.17,SW,231,0.0,0.0,51,0.00,,,0.00,meteohub,2013-03-22 10:45:00,
2013-03-22 06:50:00,27.9,12.0,30.17,SW,231,0.0,0.0,51,0.00,,,0.00,meteohub,2013-03-22 10:50:00,
2013-03-22 06:55:00,27.9,12.0,30.17,SW,231,0.0,0.0,51,0.00,,,0.00,meteohub,2013-03-22 10:55:00,
2013-03-22 07:00:00,27.9,12.0,30.17,SW,231,0.0,0.0,51,0.00,,,0.00,meteohub,2013-03-22 11:00:00,
2013-03-22 07:05:00,27.9,12.6,30.17,SW,231,0.0,0.0,52,0.00,,,0.00,meteohub,2013-03-22 11:05:00,
2013-03-22 07:10:00,28.0,12.7,30.17,SW,231,0.0,0.0,52,0.00,,,0.00,meteohub,2013-03-22 11:10:00,
2013-03-22 07:15:00,28.0,12.7,30.17,SW,231,0.0,0.0,52,0.00,,,0.00,meteohub,2013-03-22 11:15:00,
2013-03-22 07:20:00,28.2,12.9,30.17,SW,231,0.0,0.0,52,0.00,,,0.00,meteohub,2013-03-22 11:20:00,
2013-03-22 07:25:00,28.4,13.5,30.17,SW,231,0.0,0.0,53,0.00,,,0.00,meteohub,2013-03-22 11:25:00,
2013-03-22 07:30:00,28.6,13.6,30.17,SW,231,0.0,0.0,53,0.00,,,0.00,meteohub,2013-03-22 11:30:00,
2013-03-22 07:35:00,28.6,13.6,30.17,SW,231,0.0,0.0,53,0.00,,,0.00,meteohub,2013-03-22 11:35:00,
2013-03-22 07:40:00,28.9,14.0,30.17,SW,231,0.0,0.0,53,0.00,,,0.00,meteohub,2013-03-22 11:40:00,
2013-03-22 07:45:00,29.1,14.2,30.20,SW,231,0.0,0.0,53,0.00,,,0.00,meteohub,2013-03-22 11:45:00,
2013-03-22 07:50:00,29.3,14.4,30.20,SW,231,0.0,0.0,53,0.00,,,0.00,meteohub,2013-03-22 11:50:00,
2013-03-22 07:55:00,29.5,14.5,30.20,SW,231,0.0,0.0,53,0.00,,,0.00,meteohub,2013-03-22 11:55:00,
2013-03-22 08:00:00,29.5,14.5,30.20,SW,231,0.0,0.0,53,0.00,,,0.00,meteohub,2013-03-22 12:00:00,
2013-03-22 08:05:00,29.8,14.7,30.20,SW,231,0.0,0.0,53,0.00,,,0.00,meteohub,2013-03-22 12:05:00,
2013-03-22 08:10:00,30.0,15.4,30.19,SW,231,0.0,0.0,54,0.00,,,0.00,meteohub,2013-03-22 12:10:00,
2013-03-22 08:15:00,30.2,15.6,30.19,SW,231,0.0,0.0,54,0.00,,,0.00,meteohub,2013-03-22 12:15:00,
2013-03-22 08:20:00,30.6,15.4,30.19,SW,231,0.0,0.0,53,0.00,,,0.00,meteohub,2013-03-22 12:20:00,
2013-03-22 08:25:00,30.7,15.6,30.19,SW,231,0.0,0.0,53,0.00,,,0.00,meteohub,2013-03-22 12:25:00,
2013-03-22 08:30:00,30.9,15.8,30.19,SW,231,0.0,0.0,53,0.00,,,0.00,meteohub,2013-03-22 12:30:00,
2013-03-22 08:35:00,31.1,16.0,30.19,SW,231,0.0,0.0,53,0.00,,,0.00,meteohub,2013-03-22 12:35:00,
2013-03-22 08:40:00,31.3,15.6,30.19,SW,231,0.0,0.0,52,0.00,,,0.00,meteohub,2013-03-22 12:40:00,
2013-03-22 08:45:00,31.6,15.6,30.19,SW,231,0.0,0.0,51,0.00,,,0.00,meteohub,2013-03-22 12:45:00,
2013-03-22 08:50:00,32.0,15.4,30.19,SW,231,0.0,0.0,50,0.00,,,0.00,meteohub,2013-03-22 12:50:00,
2013-03-22 08:55:00,32.2,15.6,30.19,SW,231,0.0,0.0,50,0.00,,,0.00,meteohub,2013-03-22 12:55:00,
2013-03-22 09:01:00,32.2,14.7,30.19,SW,231,0.0,0.0,48,0.00,,,0.00,meteohub,2013-03-22 13:01:00,
2013-03-22 09:06:00,32.5,14.5,30.19,SW,231,0.0,0.0,47,0.00,,,0.00,meteohub,2013-03-22 13:06:00,
2013-03-22 09:11:00,32.7,13.6,30.19,SW,231,0.0,3.0,45,0.00,,,0.00,meteohub,2013-03-22 13:11:00,
2013-03-22 09:16:00,33.1,13.5,30.19,SSW,193,2.0,3.0,44,0.00,,,0.00,meteohub,2013-03-22 13:16:00,
2013-03-22 09:21:00,33.3,13.6,30.19,SE,127,0.0,3.0,44,0.00,,,0.00,meteohub,2013-03-22 13:21:00,
2013-03-22 09:26:00,33.6,13.5,30.18,SSE,157,3.0,3.0,43,0.00,,,0.00,meteohub,2013-03-22 13:26:00,
2013-03-22 09:31:00,33.6,12.9,30.18,SE,145,4.0,5.0,42,0.00,,,0.00,meteohub,2013-03-22 13:31:00,
2013-03-22 09:36:00,34.0,12.7,30.18,SSE,156,4.0,5.0,41,0.00,,,0.00,meteohub,2013-03-22 13:36:00,
2013-03-22 09:41:00,34.3,13.1,30.18,SSE,155,6.0,6.0,41,0.00,,,0.00,meteohub,2013-03-22 13:41:00,
2013-03-22 09:46:00,34.5,12.7,30.18,SW,233,0.0,6.0,40,0.00,,,0.00,meteohub,2013-03-22 13:46:00,
2013-03-22 09:51:00,34.9,12.9,30.18,SSW,195,4.0,6.0,40,0.00,,,0.00,meteohub,2013-03-22 13:51:00,
2013-03-22 09:56:00,35.2,13.3,30.18,SSW,200,3.0,6.0,40,0.00,,,0.00,meteohub,2013-03-22 13:56:00,
2013-03-22 10:01:00,36.0,13.5,30.18,SSW,212,3.0,6.0,39,0.00,,,0.00,meteohub,2013-03-22 14:01:00,
2013-03-22 10:06:00,36.5,13.3,30.18,SSW,213,4.0,6.0,38,0.00,,,0.00,meteohub,2013-03-22 14:06:00,
2013-03-22 10:11:00,36.7,12.9,30.18,SSE,154,3.0,6.0,37,0.00,,,0.00,meteohub,2013-03-22 14:11:00,
2013-03-22 10:16:00,37.0,14.4,30.18,North,11,0.0,6.0,39,0.00,,,0.00,meteohub,2013-03-22 14:16:00,
2013-03-22 10:21:00,37.4,14.2,30.18,SSW,193,3.0,5.0,38,0.00,,,0.00,meteohub,2013-03-22 14:21:00,
2013-03-22 10:27:00,37.0,13.1,30.18,SSW,199,3.0,6.0,37,0.00,,,0.00,meteohub,2013-03-22 14:27:00,
2013-03-22 10:32:00,37.2,12.7,30.18,SSW,206,6.0,6.0,36,0.00,,,0.00,meteohub,2013-03-22 14:32:00,
2013-03-22 10:37:00,37.6,12.4,30.18,WSW,245,0.0,6.0,35,0.00,,,0.00,meteohub,2013-03-22 14:37:00,
2013-03-22 10:42:00,37.9,13.3,30.18,WSW,240,2.0,6.0,36,0.00,,,0.00,meteohub,2013-03-22 14:42:00,
2013-03-22 10:47:00,38.1,12.9,30.18,WSW,254,0.0,6.0,35,0.00,,,0.00,meteohub,2013-03-22 14:47:00,
2013-03-22 10:52:00,38.8,13.5,30.17,SSW,201,3.0,4.0,35,0.00,,,0.00,meteohub,2013-03-22 14:52:00,
2013-03-22 10:57:00,39.4,12.7,30.17,SSE,167,3.0,4.0,33,0.00,,,0.00,meteohub,2013-03-22 14:57:00,
2013-03-22 11:02:00,39.7,12.9,30.17,WSW,240,4.0,4.0,33,0.00,,,0.00,meteohub,2013-03-22 15:02:00,
2013-03-22 11:07:00,40.1,13.3,30.17,WSW,240,5.0,6.0,33,0.00,,,0.00,meteohub,2013-03-22 15:07:00,
2013-03-22 11:12:00,40.5,12.9,30.17,SSW,199,4.0,6.0,32,0.00,,,0.00,meteohub,2013-03-22 15:12:00,
2013-03-22 11:17:00,41.4,13.6,30.17,WSW,250,4.0,6.0,32,0.00,,,0.00,meteohub,2013-03-22 15:17:00,
2013-03-22 11:22:00,41.9,13.5,30.17,North,357,0.0,5.0,31,0.00,,,0.00,meteohub,2013-03-22 15:22:00,
2013-03-22 11:27:00,42.4,14.0,30.17,WSW,252,3.0,4.0,31,0.00,,,0.00,meteohub,2013-03-22 15:27:00,
2013-03-22 11:32:00,43.0,13.6,30.17,South,176,0.0,6.0,30,0.00,,,0.00,meteohub,2013-03-22 15:32:00,
2013-03-22 11:37:00,43.3,14.0,30.17,NNW,340,2.0,6.0,30,0.00,,,0.00,meteohub,2013-03-22 15:37:00,
2013-03-22 11:42:00,43.3,14.0,30.17,South,172,0.0,6.0,30,0.00,,,0.00,meteohub,2013-03-22 15:42:00,
2013-03-22 11:47:00,43.9,13.6,30.16,WSW,243,0.0,6.0,29,0.00,,,0.00,meteohub,2013-03-22 15:47:00,
2013-03-22 11:52:00,44.1,13.8,30.16,SE,131,0.0,6.0,29,0.00,,,0.00,meteohub,2013-03-22 15:52:00,
2013-03-22 11:57:00,44.1,13.8,30.16,NNW,337,0.0,6.0,29,0.00,,,0.00,meteohub,2013-03-22 15:57:00,
2013-03-22 12:02:00,43.7,13.5,30.17,SSW,210,0.0,5.0,29,0.00,,,0.00,meteohub,2013-03-22 16:02:00,
2013-03-22 12:07:00,43.7,13.5,30.16,North,4,0.0,5.0,29,0.00,,,0.00,meteohub,2013-03-22 16:07:00,
2013-03-22 12:12:00,43.9,13.6,30.16,SSE,161,3.0,5.0,29,0.00,,,0.00,meteohub,2013-03-22 16:12:00,
2013-03-22 12:17:00,43.9,13.6,30.16,SSE,148,8.0,8.0,29,0.00,,,0.00,meteohub,2013-03-22 16:17:00,
2013-03-22 12:22:00,44.4,14.2,30.16,WNW,285,4.0,7.0,29,0.00,,,0.00,meteohub,2013-03-22 16:22:00,
2013-03-22 12:27:00,44.8,13.6,30.13,NW,319,0.0,10.0,28,0.00,,,0.00,meteohub,2013-03-22 16:27:00,
2013-03-22 12:32:00,45.1,14.0,30.13,South,175,0.0,10.0,28,0.00,,,0.00,meteohub,2013-03-22 16:32:00,
2013-03-22 12:37:00,45.7,14.4,30.13,WNW,292,0.0,6.0,28,0.00,,,0.00,meteohub,2013-03-22 16:37:00,
2013-03-22 12:42:00,46.0,14.7,30.13,SSW,193,3.0,6.0,28,0.00,,,0.00,meteohub,2013-03-22 16:42:00,
2013-03-22 12:47:00,46.2,14.9,30.13,SW,226,4.0,6.0,28,0.00,,,0.00,meteohub,2013-03-22 16:47:00,
2013-03-22 12:52:00,46.2,14.9,30.13,SW,215,5.0,6.0,28,0.00,,,0.00,meteohub,2013-03-22 16:52:00,
2013-03-22 12:58:00,46.8,14.5,30.13,NNE,12,2.0,6.0,27,0.00,,,0.00,meteohub,2013-03-22 16:58:00,
2013-03-22 13:03:00,47.1,14.9,30.12,SSW,206,4.0,6.0,27,0.00,,,0.00,meteohub,2013-03-22 17:03:00,
2013-03-22 13:08:00,47.5,15.1,30.12,NNW,342,3.0,6.0,27,0.00,,,0.00,meteohub,2013-03-22 17:08:00,
2013-03-22 13:13:00,47.3,15.1,30.12,SSW,205,6.0,6.0,27,0.00,,,0.00,meteohub,2013-03-22 17:13:00,
2013-03-22 13:18:00,47.5,15.1,30.12,West,276,4.0,8.0,27,0.00,,,0.00,meteohub,2013-03-22 17:18:00,
2013-03-22 13:23:00,47.8,15.4,30.12,WSW,257,0.0,8.0,27,0.00,,,0.00,meteohub,2013-03-22 17:23:00,
2013-03-22 13:28:00,48.2,14.9,30.12,North,10,0.0,8.0,26,0.00,,,0.00,meteohub,2013-03-22 17:28:00,
2013-03-22 13:33:00,47.8,15.4,30.12,North,357,5.0,5.0,27,0.00,,,0.00,meteohub,2013-03-22 17:33:00,
2013-03-22 13:38:00,47.5,15.1,30.12,WSW,254,4.0,6.0,27,0.00,,,0.00,meteohub,2013-03-22 17:38:00,
2013-03-22 13:43:00,47.7,15.3,30.15,North,10,4.0,8.0,27,0.00,,,0.00,meteohub,2013-03-22 17:43:00,
2013-03-22 13:48:00,47.7,15.3,30.15,NW,310,3.0,8.0,27,0.00,,,0.00,meteohub,2013-03-22 17:48:00,
2013-03-22 13:53:00,47.8,15.4,30.15,SSW,200,2.0,8.0,27,0.00,,,0.00,meteohub,2013-03-22 17:53:00,
2013-03-22 13:58:00,48.4,15.1,30.12,SSE,167,4.0,6.0,26,0.00,,,0.00,meteohub,2013-03-22 17:58:00,
2013-03-22 14:03:00,48.7,15.4,30.12,SW,227,3.0,6.0,26,0.00,,,0.00,meteohub,2013-03-22 18:03:00,
2013-03-22 14:08:00,48.7,15.4,30.12,WNW,289,4.0,6.0,26,0.00,,,0.00,meteohub,2013-03-22 18:08:00,
2013-03-22 14:13:00,48.7,15.4,30.12,NW,306,3.0,7.0,26,0.00,,,0.00,meteohub,2013-03-22 18:13:00,
2013-03-22 14:18:00,48.9,15.4,30.12,NNW,337,4.0,7.0,26,0.00,,,0.00,meteohub,2013-03-22 18:18:00,
2013-03-22 14:23:00,49.1,15.6,30.12,SW,235,3.0,7.0,26,0.00,,,0.00,meteohub,2013-03-22 18:23:00,
2013-03-22 14:28:00,49.1,15.6,30.12,WSW,253,5.0,6.0,26,0.00,,,0.00,meteohub,2013-03-22 18:28:00,
2013-03-22 14:33:00,49.3,15.8,30.12,WNW,300,3.0,6.0,26,0.00,,,0.00,meteohub,2013-03-22 18:33:00,
2013-03-22 14:38:00,49.3,15.8,30.12,SW,235,0.0,7.0,26,0.00,,,0.00,meteohub,2013-03-22 18:38:00,
2013-03-22 14:43:00,49.3,15.8,30.12,West,261,5.0,7.0,26,0.00,,,0.00,meteohub,2013-03-22 18:43:00,
2013-03-22 14:48:00,49.5,16.0,30.12,NNE,12,4.0,6.0,26,0.00,,,0.00,meteohub,2013-03-22 18:48:00,
2013-03-22 14:53:00,49.3,15.8,30.12,SW,226,6.0,6.0,26,0.00,,,0.00,meteohub,2013-03-22 18:53:00,
2013-03-22 14:58:00,48.9,15.4,30.09,NW,324,8.0,8.0,26,0.00,,,0.00,meteohub,2013-03-22 18:58:00,
2013-03-22 15:03:00,48.9,15.4,30.09,NNW,342,0.0,8.0,26,0.00,,,0.00,meteohub,2013-03-22 19:03:00,
2013-03-22 15:08:00,48.9,15.4,30.09,SSW,212,4.0,8.0,26,0.00,,,0.00,meteohub,2013-03-22 19:08:00,
2013-03-22 15:13:00,49.1,15.6,30.09,North,0,4.0,8.0,26,0.00,,,0.00,meteohub,2013-03-22 19:13:00,
2013-03-22 15:18:00,49.3,15.8,30.09,WSW,246,6.0,6.0,26,0.00,,,0.00,meteohub,2013-03-22 19:18:00,
2013-03-22 15:23:00,49.5,16.0,30.09,WSW,254,5.0,6.0,26,0.00,,,0.00,meteohub,2013-03-22 19:23:00,
2013-03-22 15:29:00,49.3,15.8,30.09,WSW,254,5.0,6.0,26,0.00,,,0.00,meteohub,2013-03-22 19:29:00,
2013-03-22 15:34:00,49.3,15.8,30.09,North,353,3.0,8.0,26,0.00,,,0.00,meteohub,2013-03-22 19:34:00,
2013-03-22 15:39:00,49.1,15.6,30.09,SW,226,6.0,8.0,26,0.00,,,0.00,meteohub,2013-03-22 19:39:00,
2013-03-22 15:44:00,48.9,15.4,30.09,WNW,282,5.0,7.0,26,0.00,,,0.00,meteohub,2013-03-22 19:44:00,
2013-03-22 15:49:00,48.9,15.4,30.09,North,353,0.0,8.0,26,0.00,,,0.00,meteohub,2013-03-22 19:49:00,
2013-03-22 15:54:00,48.9,15.4,30.09,NNW,346,3.0,8.0,26,0.00,,,0.00,meteohub,2013-03-22 19:54:00,
2013-03-22 15:59:00,48.9,15.4,30.09,NNE,21,0.0,7.0,26,0.00,,,0.00,meteohub,2013-03-22 19:59:00,
2013-03-22 16:04:00,48.7,15.4,30.09,NNE,18,0.0,7.0,26,0.00,,,0.00,meteohub,2013-03-22 20:04:00,
2013-03-22 16:09:00,48.6,15.3,30.09,WSW,250,2.0,8.0,26,0.00,,,0.00,meteohub,2013-03-22 20:09:00,
2013-03-22 16:14:00,48.4,15.1,30.09,NNW,337,2.0,8.0,26,0.00,,,0.00,meteohub,2013-03-22 20:14:00,
2013-03-22 16:19:00,48.4,15.1,30.09,SW,227,3.0,8.0,26,0.00,,,0.00,meteohub,2013-03-22 20:19:00,
2013-03-22 16:24:00,48.2,14.9,30.09,SW,233,4.0,8.0,26,0.00,,,0.00,meteohub,2013-03-22 20:24:00,
2013-03-22 16:29:00,48.0,15.6,30.09,North,2,0.0,6.0,27,0.00,,,0.00,meteohub,2013-03-22 20:29:00,
2013-03-22 16:37:00,47.8,15.4,30.09,North,357,3.0,6.0,27,0.00,,,0.00,meteohub,2013-03-22 20:37:00,
2013-03-22 16:42:00,47.8,15.4,30.09,NE,38,2.0,6.0,27,0.00,,,0.00,meteohub,2013-03-22 20:42:00,
2013-03-22 16:47:00,47.8,15.4,30.09,WSW,238,0.0,6.0,27,0.00,,,0.00,meteohub,2013-03-22 20:47:00,
2013-03-22 16:52:00,47.8,15.4,30.09,West,262,0.0,5.0,27,0.00,,,0.00,meteohub,2013-03-22 20:52:00,
2013-03-22 16:57:00,47.8,15.4,30.09,North,10,3.0,4.0,27,0.00,,,0.00,meteohub,2013-03-22 20:57:00,
2013-03-22 17:02:00,47.8,15.4,30.09,WSW,254,0.0,6.0,27,0.00,,,0.00,meteohub,2013-03-22 21:02:00,
2013-03-22 17:07:00,47.7,15.3,30.09,SSW,203,0.0,6.0,27,0.00,,,0.00,meteohub,2013-03-22 21:07:00,
2013-03-22 17:12:00,47.7,15.3,30.09,WSW,241,5.0,6.0,27,0.00,,,0.00,meteohub,2013-03-22 21:12:00,
2013-03-22 17:17:00,47.7,15.3,30.09,WSW,248,5.0,5.0,27,0.00,,,0.00,meteohub,2013-03-22 21:17:00,
2013-03-22 17:22:00,47.7,15.3,30.09,West,272,4.0,5.0,27,0.00,,,0.00,meteohub,2013-03-22 21:22:00,
2013-03-22 17:27:00,47.7,15.3,30.06,North,4,0.0,6.0,27,0.00,,,0.00,meteohub,2013-03-22 21:27:00,
2013-03-22 17:32:00,47.7,15.3,30.06,WNW,302,0.0,6.0,27,0.00,,,0.00,meteohub,2013-03-22 21:32:00,
2013-03-22 17:37:00,47.7,15.3,30.06,North,0,0.0,6.0,27,0.00,,,0.00,meteohub,2013-03-22 21:37:00,
2013-03-22 17:43:00,47.5,15.1,30.06,WSW,244,6.0,6.0,27,0.00,,,0.00,meteohub,2013-03-22 21:43:00,
2013-03-22 17:48:00,47.3,15.1,30.06,WSW,243,3.0,8.0,27,0.00,,,0.00,meteohub,2013-03-22 21:48:00,
2013-03-22 17:53:00,47.3,15.1,30.06,NW,324,3.0,8.0,27,0.00,,,0.00,meteohub,2013-03-22 21:53:00,
2013-03-22 17:58:00,47.3,15.1,30.09,North,3,0.0,8.0,27,0.00,,,0.00,meteohub,2013-03-22 21:58:00,
2013-03-22 18:03:00,47.3,15.1,30.09,West,267,3.0,5.0,27,0.00,,,0.00,meteohub,2013-03-22 22:03:00,
2013-03-22 18:08:00,47.3,15.1,30.09,West,279,0.0,5.0,27,0.00,,,0.00,meteohub,2013-03-22 22:08:00,
2013-03-22 18:13:00,47.1,14.9,30.06,North,353,2.0,6.0,27,0.00,,,0.00,meteohub,2013-03-22 22:13:00,
2013-03-22 18:18:00,47.1,14.9,30.06,WSW,258,2.0,6.0,27,0.00,,,0.00,meteohub,2013-03-22 22:18:00,
2013-03-22 18:23:00,47.1,14.9,30.06,West,262,3.0,6.0,27,0.00,,,0.00,meteohub,2013-03-22 22:23:00,
2013-03-22 18:28:00,46.9,14.7,30.09,WSW,244,0.0,6.0,27,0.00,,,0.00,meteohub,2013-03-22 22:28:00,
2013-03-22 18:33:00,46.9,15.4,30.09,SSW,193,2.0,4.0,28,0.00,,,0.00,meteohub,2013-03-22 22:33:00,
2013-03-22 18:38:00,46.9,15.4,30.09,SSW,198,2.0,4.0,28,0.00,,,0.00,meteohub,2013-03-22 22:38:00,
2013-03-22 18:43:00,46.8,15.4,30.06,WSW,241,0.0,5.0,28,0.00,,,0.00,meteohub,2013-03-22 22:43:00,
2013-03-22 18:48:00,46.8,15.4,30.06,West,269,4.0,5.0,28,0.00,,,0.00,meteohub,2013-03-22 22:48:00,
2013-03-22 18:53:00,46.8,15.4,30.06,WNW,302,0.0,5.0,28,0.00,,,0.00,meteohub,2013-03-22 22:53:00,
2013-03-22 18:58:00,46.6,15.3,30.09,WSW,249,0.0,5.0,28,0.00,,,0.00,meteohub,2013-03-22 22:58:00,
2013-03-22 19:03:00,46.6,15.3,30.09,NW,321,0.0,5.0,28,0.00,,,0.00,meteohub,2013-03-22 23:03:00,
2013-03-22 19:08:00,46.6,15.3,30.09,West,274,3.0,5.0,28,0.00,,,0.00,meteohub,2013-03-22 23:08:00,
2013-03-22 19:13:00,46.6,15.3,30.09,West,273,3.0,5.0,28,0.00,,,0.00,meteohub,2013-03-22 23:13:00,
2013-03-22 19:18:00,46.4,15.1,30.09,WSW,250,0.0,6.0,28,0.00,,,0.00,meteohub,2013-03-22 23:18:00,
2013-03-22 19:23:00,46.4,15.1,30.09,SW,231,0.0,6.0,28,0.00,,,0.00,meteohub,2013-03-22 23:23:00,
2013-03-22 19:28:00,46.4,15.1,30.09,West,275,0.0,6.0,28,0.00,,,0.00,meteohub,2013-03-22 23:28:00,
2013-03-22 19:33:00,46.2,15.6,30.09,West,267,0.0,4.0,29,0.00,,,0.00,meteohub,2013-03-22 23:33:00,
2013-03-22 19:38:00,46.2,15.6,30.09,WSW,242,0.0,4.0,29,0.00,,,0.00,meteohub,2013-03-22 23:38:00,
2013-03-22 19:43:00,46.0,15.6,30.09,West,275,0.0,4.0,29,0.00,,,0.00,meteohub,2013-03-22 23:43:00,
2013-03-22 19:48:00,46.0,15.6,30.09,West,264,0.0,4.0,29,0.00,,,0.00,meteohub,2013-03-22 23:48:00,
2013-03-22 19:53:00,45.9,16.2,30.09,West,273,3.0,4.0,30,0.00,,,0.00,meteohub,2013-03-22 23:53:00,
2013-03-22 19:58:00,45.9,16.2,30.09,NW,314,3.0,3.0,30,0.00,,,0.00,meteohub,2013-03-22 23:58:00,
2013-03-22 20:03:00,45.9,16.2,30.09,NW,311,0.0,3.0,30,0.00,,,0.00,meteohub,2013-03-23 00:03:00,
2013-03-22 20:08:00,45.9,16.2,30.09,SSW,212,3.0,4.0,30,0.00,,,0.00,meteohub,2013-03-23 00:08:00,
2013-03-22 20:13:00,45.7,16.0,30.09,SSW,206,3.0,4.0,30,0.00,,,0.00,meteohub,2013-03-23 00:13:00,
2013-03-22 20:18:00,45.7,15.3,30.09,SW,224,0.0,4.0,29,0.00,,,0.00,meteohub,2013-03-23 00:18:00,
2013-03-22 20:23:00,45.5,15.1,30.09,SW,224,0.0,4.0,29,0.00,,,0.00,meteohub,2013-03-23 00:23:00,
2013-03-22 20:28:00,45.5,15.8,30.09,NW,316,0.0,4.0,30,0.00,,,0.00,meteohub,2013-03-23 00:28:00,
2013-03-22 20:33:00,45.5,15.8,30.09,North,0,0.0,2.0,30,0.00,,,0.00,meteohub,2013-03-23 00:33:00,
2013-03-22 20:38:00,45.3,15.6,30.09,North,0,0.0,3.0,30,0.00,,,0.00,meteohub,2013-03-23 00:38:00,
2013-03-22 20:43:00,45.3,15.6,30.09,North,0,0.0,3.0,30,0.00,,,0.00,meteohub,2013-03-23 00:43:00,
2013-03-22 20:49:00,45.3,15.6,30.09,North,0,0.0,3.0,30,0.00,,,0.00,meteohub,2013-03-23 00:49:00,
2013-03-22 20:54:00,45.3,15.6,30.09,North,0,0.0,2.0,30,0.00,,,0.00,meteohub,2013-03-23 00:54:00,
2013-03-22 20:59:00,45.1,15.6,30.09,North,0,0.0,2.0,30,0.00,,,0.00,meteohub,2013-03-23 00:59:00,
2013-03-22 21:04:00,45.1,16.3,30.09,North,0,0.0,0.0,31,0.00,,,0.00,meteohub,2013-03-23 01:04:00,
2013-03-22 21:09:00,45.0,16.9,30.09,North,0,0.0,0.0,32,0.00,,,0.00,meteohub,2013-03-23 01:09:00,
2013-03-22 21:14:00,44.8,16.7,30.09,North,0,0.0,0.0,32,0.00,,,0.00,meteohub,2013-03-23 01:14:00,
2013-03-22 21:19:00,44.8,17.4,30.09,North,0,0.0,0.0,33,0.00,,,0.00,meteohub,2013-03-23 01:19:00,
2013-03-22 21:24:00,44.6,17.2,30.09,North,0,0.0,0.0,33,0.00,,,0.00,meteohub,2013-03-23 01:24:00,
2013-03-22 21:29:00,44.6,17.2,30.09,North,0,0.0,0.0,33,0.00,,,0.00,meteohub,2013-03-23 01:29:00,
2013-03-22 21:34:00,44.4,17.8,30.09,North,0,0.0,0.0,34,0.00,,,0.00,meteohub,2013-03-23 01:34:00,
2013-03-22 21:39:00,44.4,17.8,30.09,North,0,0.0,0.0,34,0.00,,,0.00,meteohub,2013-03-23 01:39:00,
2013-03-22 21:44:00,44.4,18.5,30.13,North,0,0.0,0.0,35,0.00,,,0.00,meteohub,2013-03-23 01:44:00,
2013-03-22 21:49:00,44.4,18.5,30.12,North,0,0.0,0.0,35,0.00,,,0.00,meteohub,2013-03-23 01:49:00,
2013-03-22 21:54:00,44.2,18.3,30.12,North,0,0.0,0.0,35,0.00,,,0.00,meteohub,2013-03-23 01:54:00,
2013-03-22 21:59:00,44.2,19.6,30.13,North,0,0.0,0.0,37,0.00,,,0.00,meteohub,2013-03-23 01:59:00,
2013-03-22 22:04:00,44.1,20.1,30.13,North,0,0.0,0.0,38,0.00,,,0.00,meteohub,2013-03-23 02:04:00,
2013-03-22 22:09:00,44.1,20.1,30.13,North,0,0.0,0.0,38,0.00,,,0.00,meteohub,2013-03-23 02:09:00,
2013-03-22 22:14:00,43.7,19.8,30.13,North,0,0.0,0.0,38,0.00,,,0.00,meteohub,2013-03-23 02:14:00,
2013-03-22 22:19:00,43.7,19.8,30.13,North,0,0.0,0.0,38,0.00,,,0.00,meteohub,2013-03-23 02:19:00,
2013-03-22 22:24:00,43.5,19.6,30.13,North,0,0.0,0.0,38,0.00,,,0.00,meteohub,2013-03-23 02:24:00,
2013-03-22 22:29:00,43.5,19.6,30.13,North,0,0.0,0.0,38,0.00,,,0.00,meteohub,2013-03-23 02:29:00,
2013-03-22 22:34:00,43.5,19.6,30.13,North,0,0.0,0.0,38,0.00,,,0.00,meteohub,2013-03-23 02:34:00,
2013-03-22 22:39:00,43.5,19.6,30.13,North,0,0.0,0.0,38,0.00,,,0.00,meteohub,2013-03-23 02:39:00,
2013-03-22 22:44:00,43.5,19.6,30.13,North,0,0.0,0.0,38,0.00,,,0.00,meteohub,2013-03-23 02:44:00,
2013-03-22 22:49:00,43.5,19.6,30.13,North,0,0.0,0.0,38,0.00,,,0.00,meteohub,2013-03-23 02:49:00,
2013-03-22 22:54:00,43.5,19.6,30.13,North,0,0.0,0.0,38,0.00,,,0.00,meteohub,2013-03-23 02:54:00,
2013-03-22 22:59:00,43.3,20.1,30.13,North,0,0.0,0.0,39,0.00,,,0.00,meteohub,2013-03-23 02:59:00,
2013-03-22 23:04:00,43.3,20.1,30.13,North,0,0.0,0.0,39,0.00,,,0.00,meteohub,2013-03-23 03:04:00,
2013-03-22 23:09:00,43.3,20.1,30.13,North,0,0.0,0.0,39,0.00,,,0.00,meteohub,2013-03-23 03:09:00,
2013-03-22 23:14:00,43.3,20.1,30.13,North,0,0.0,0.0,39,0.00,,,0.00,meteohub,2013-03-23 03:14:00,
2013-03-22 23:20:00,43.2,19.9,30.13,North,0,0.0,0.0,39,0.00,,,0.00,meteohub,2013-03-23 03:20:00,
2013-03-22 23:25:00,43.0,19.8,30.13,North,0,0.0,0.0,39,0.00,,,0.00,meteohub,2013-03-23 03:25:00,
2013-03-22 23:30:00,42.6,19.4,30.13,North,0,0.0,0.0,39,0.00,,,0.00,meteohub,2013-03-23 03:30:00,
2013-03-22 23:35:00,42.3,19.6,30.13,North,0,0.0,0.0,40,0.00,,,0.00,meteohub,2013-03-23 03:35:00,
2013-03-22 23:40:00,42.1,19.6,30.13,North,0,0.0,0.0,40,0.00,,,0.00,meteohub,2013-03-23 03:40:00,
2013-03-22 23:45:00,41.9,19.4,30.13,North,0,0.0,0.0,40,0.00,,,0.00,meteohub,2013-03-23 03:45:00,
2013-03-22 23:50:00,41.7,19.2,30.13,North,0,0.0,0.0,40,0.00,,,0.00,meteohub,2013-03-23 03:50:00,
2013-03-22 23:55:00,41.5,19.0,30.13,North,0,0.0,0.0,40,0.00,,,0.00,meteohub,2013-03-23 03:55:00,